Theta_e
318 318 319 320 321 322 326 325 324 322 323 324 326 325 326 329 336 338 340 335 335 332 330 329 326 324 326 332 335 333 329 329 331 334 335 332 331 331 328 332 328 330 331
323 321 321 321 323 325 330 330 330 329 327 327 327 326 327 331 334 337 340 335 333 332 331 331 330 329 332 331 332 332 331 329 329 334 335 332 333 329 332 332 329 329 330
339 337 333 331 329 327 331 333 333 332 331 332 331 331 333 335 337 338 339 334 332 332 332 332 330 330 332 336 336 331 331 331 327 328 335 333 333 329 330 330 331 329 328
343 341 340 338 336 334 332 334 335 334 333 333 333 333 335 336 337 339 338 336 335 335 332 333 331 330 330 330 334 336 330 331 329 327 329 335 335 332 331 330 330 331 331
345 343 343 341 339 337 334 336 335 336 335 335 334 333 334 337 338 339 337 336 335 335 334 333 332 332 330 330 329 336 334 329 329 329 328 331 335 334 332 329 330 332 332
346 345 345 343 342 340 337 336 337 337 336 336 336 335 338 338 339 337 335 335 335 335 335 334 332 332 332 330 328 330 336 330 328 329 328 328 334 335 333 332 330 331 329
345 347 347 344 343 341 340 338 338 338 337 338 337 336 335 335 336 335 335 335 333 335 334 334 334 332 332 331 329 326 333 335 328 328 328 328 330 336 334 333 331 332 333
348 347 347 345 344 343 342 341 339 339 338 336 334 334 335 333 335 335 336 334 334 335 334 334 333 332 331 331 330 326 327 334 332 329 329 327 329 336 333 333 332 332 333
339 342 344 347 346 344 344 343 341 340 338 336 335 335 334 334 325 333 335 335 335 334 334 334 333 332 332 331 331 329 327 327 336 335 329 327 328 335 334 333 332 333 334
338 341 345 348 347 345 345 344 342 341 340 336 335 335 334 332 330 329 333 333 334 335 334 334 332 332 332 330 331 330 328 327 329 334 330 327 327 333 334 333 333 333 333
342 345 348 349 347 345 345 344 343 341 340 338 336 336 336 334 332 325 326 327 333 333 333 333 332 331 331 331 330 326 330 328 329 330 329 327 329 333 334 332 333 332 332
348 348 348 347 346 345 345 344 343 342 340 337 338 337 336 332 329 327 325 324 325 331 331 332 331 329 328 329 328 325 330 328 330 332 330 328 333 333 333 333 332 331 332
348 348 347 347 345 344 345 344 342 342 339 337 337 337 335 333 331 331 328 324 325 330 331 331 330 329 329 328 327 328 330 330 330 331 331 328 333 333 334 333 332 331 331
348 347 347 346 343 343 345 342 344 341 339 339 337 336 334 333 331 330 330 326 324 323 328 327 328 328 328 330 327 329 329 331 329 328 330 328 333 334 333 332 331 331 330
347 347 346 344 343 343 343 343 342 341 340 337 336 335 333 332 331 331 330 329 326 324 323 328 327 328 329 326 329 329 329 328 327 330 329 329 330 332 330 331 331 330 328
347 346 344 342 343 344 342 341 340 339 338 336 334 334 333 331 330 330 329 330 329 325 323 327 329 328 329 327 328 329 327 329 330 328 329 330 330 331 331 330 330 328 327
347 345 342 342 344 342 341 340 339 337 335 333 333 332 332 331 331 332 330 330 330 328 323 328 328 329 329 327 326 330 328 330 329 327 328 330 330 331 330 330 329 328 326
345 343 343 342 344 342 341 339 335 334 334 333 333 332 331 331 332 331 330 331 329 329 327 327 327 328 329 329 329 330 330 330 331 330 329 331 330 331 330 330 326 327 326
343 343 343 344 342 340 338 336 333 334 334 333 332 332 331 332 329 330 330 330 329 329 328 327 327 328 329 330 329 328 326 330 330 331 331 331 331 331 331 329 325 328 325
344 344 344 341 340 338 336 333 333 332 334 332 331 331 331 330 327 328 328 329 329 328 327 326 326 327 327 327 327 327 326 326 328 331 332 331 331 331 330 325 327 327 323
345 344 341 338 336 335 334 333 331 331 332 332 332 332 331 328 327 327 328 328 327 327 325 324 324 325 324 325 325 325 323 324 325 327 329 328 329 329 326 326 328 325 320
343 340 336 334 335 336 334 331 331 333 333 332 331 331 328 326 326 326 327 327 327 327 325 324 324 325 324 325 324 323 322 323 321 323 326 326 328 325 327 328 327 323 319
336 334 333 333 334 333 331 332 333 332 332 331 331 328 326 327 325 326 327 328 328 327 328 326 323 324 324 324 324 322 323 323 319 322 326 322 326 326 327 326 324 321 318
333 332 331 331 331 332 332 332 332 332 332 331 329 327 327 326 326 326 327 328 328 326 326 326 324 324 323 323 325 323 322 320 321 323 324 319 322 323 323 323 321 319 315
332 331 330 328 329 327 326 328 332 332 332 330 328 327 327 327 328 327 326 326 326 324 324 324 324 324 324 324 323 322 320 319 319 319 321 320 319 319 319 319 318 315 313
333 332 329 330 329 328 327 329 331 332 330 328 327 327 326 327 328 327 328 326 324 324 323 323 323 323 323 324 322 321 322 320 318 318 320 320 318 318 317 315 314 313 313
Wind_Speed
33 32 32 32 29 29 30 28 29 29 28 28 25 25 22 21 21 19 17 14 19 18 13 11 10 12 16 19 18 16 15 15 15 17 21 20 20 19 19 19 18 17 16
33 33 33 33 31 32 32 29 30 29 29 28 26 25 24 22 21 22 18 21 22 18 17 13 11 11 15 17 19 19 17 15 15 17 19 22 21 21 21 18 19 15 18
32 31 31 31 30 32 31 30 30 29 27 26 24 23 23 22 20 25 20 25 21 20 18 16 12 11 14 17 18 20 20 18 15 15 18 22 22 22 20 17 17 17 18
32 31 31 31 28 30 31 32 30 30 28 25 24 24 24 26 23 21 19 22 19 19 22 20 16 13 14 17 19 20 21 20 18 17 18 20 24 23 22 19 18 18 17
31 33 31 32 28 29 31 31 31 29 28 26 26 28 27 27 24 20 18 19 20 20 22 24 20 16 16 17 18 20 21 22 21 19 17 21 22 24 22 22 19 15 16
30 30 31 34 29 29 31 31 30 29 27 26 27 27 25 23 20 17 18 21 19 20 22 25 23 19 18 16 17 19 20 22 22 21 19 19 22 22 25 23 21 22 12
34 33 33 35 30 31 34 31 29 27 23 19 17 16 16 14 15 17 18 18 17 16 17 21 22 17 21 20 19 19 19 20 23 23 22 20 22 22 24 23 21 20 14
32 32 34 34 30 33 31 30 29 20 18 18 9 4 1 4 11 18 21 15 15 12 14 17 18 19 21 21 23 20 20 20 22 22 21 19 21 22 23 23 18 19 15
31 32 33 33 30 34 29 24 25 23 15 16 16 7 1 4 1 3 4 11 13 11 14 15 16 16 18 22 24 20 21 21 20 20 22 19 20 21 23 21 19 19 16
23 30 32 30 28 28 24 24 22 21 18 13 12 11 7 5 3 2 2 5 8 10 10 11 9 15 20 19 21 20 22 20 22 21 21 18 20 20 22 21 20 17 18
24 29 29 26 28 25 22 23 22 20 20 19 13 8 10 6 4 3 2 4 6 7 9 9 9 12 18 20 19 18 22 20 23 20 20 18 19 21 23 22 20 19 18
25 26 24 24 23 22 22 24 22 19 19 17 16 14 11 5 5 3 2 4 3 3 5 8 9 12 14 16 18 16 20 20 21 19 19 18 20 23 24 22 21 20 22
26 26 25 24 22 23 19 19 19 19 17 18 18 15 14 14 8 9 5 2 2 2 3 8 8 11 12 15 14 18 15 19 20 18 19 20 24 25 24 22 22 25 27
32 28 26 24 18 23 18 16 18 17 17 15 16 14 14 12 13 11 9 6 0 1 3 3 8 8 11 14 9 16 13 16 20 19 20 22 25 28 27 25 24 27 28
32 29 26 24 20 21 19 17 18 18 18 16 14 13 13 12 12 12 12 10 7 3 3 5 4 10 10 16 10 12 10 14 16 18 21 24 23 25 27 26 29 27 23
31 29 26 22 22 22 20 19 19 18 17 14 14 14 13 12 13 11 11 11 11 6 2 4 3 11 15 14 13 9 9 12 15 16 20 27 29 25 28 29 29 25 24
29 28 26 24 22 22 22 21 18 16 15 16 14 14 13 13 13 11 12 12 11 10 4 2 5 10 17 15 12 7 9 12 15 16 19 26 25 28 30 28 27 25 23
26 28 26 24 23 24 22 19 17 16 17 18 16 16 14 13 12 11 12 13 12 13 8 9 8 9 12 16 14 11 10 12 14 16 20 20 26 25 29 28 24 25 23
30 28 27 24 25 25 22 17 18 14 17 17 17 15 15 14 12 11 10 10 11 12 16 15 10 14 16 18 16 11 11 12 10 10 14 17 24 25 28 27 24 23 20
31 29 27 27 26 23 20 18 15 14 15 18 16 14 14 13 12 11 11 12 11 16 20 18 15 16 13 15 17 18 15 14 15 15 20 21 26 27 29 24 23 22 18
32 30 29 25 22 22 21 19 16 17 18 16 15 14 14 13 10 9 12 14 15 19 20 17 13 12 10 15 17 17 19 18 16 17 24 26 29 25 22 22 25 21 18
32 30 25 21 21 21 19 15 16 17 16 15 15 14 12 10 10 10 8 15 19 27 19 15 12 14 14 15 19 22 23 15 4 14 22 19 23 25 25 26 23 19 17
27 25 21 20 19 20 20 17 15 15 15 13 12 13 11 9 10 11 9 13 15 25 26 28 22 20 19 22 25 24 18 17 9 16 23 14 20 22 23 24 20 18 17
25 25 24 23 22 18 16 14 14 14 13 12 10 10 9 10 10 11 11 14 18 20 21 21 22 25 23 25 26 24 22 18 19 19 19 5 14 17 20 19 19 17 17
27 27 24 22 19 17 14 14 13 14 14 12 9 9 9 7 10 12 13 21 20 16 13 11 16 20 19 24 26 28 24 23 10 9 13 10 12 12 15 17 18 18 19
28 26 22 17 15 14 14 13 13 16 15 12 11 10 8 7 11 15 21 26 24 19 17 18 19 17 18 21 24 24 30 20 14 4 14 11 16 11 4 13 18 20 22
Wind_Direction
238 240 241 242 240 241 240 242 244 245 246 247 248 253 254 256 258 270 266 244 226 216 223 225 219 223 222 218 218 225 222 221 217 217 216 211 205 202 207 207 197 193 191
241 242 243 243 243 244 242 241 244 245 247 249 249 252 256 256 255 262 269 230 214 213 223 224 227 223 224 223 221 223 225 225 221 219 216 213 214 210 203 203 201 209 195
240 239 239 239 241 244 244 241 240 245 247 251 251 250 252 259 256 257 250 226 220 230 229 224 219 229 227 226 224 224 223 223 223 222 219 212 214 208 208 215 205 203 207
242 241 239 242 237 239 241 239 238 239 242 243 247 249 249 253 257 254 246 228 252 244 232 234 228 234 234 236 224 223 223 220 220 220 222 216 216 217 222 213 214 206 214
244 240 243 248 239 234 234 236 235 235 235 239 243 248 251 249 250 252 249 252 260 255 240 234 232 234 233 237 231 221 224 221 219 221 223 223 221 217 215 216 216 215 228
247 246 248 247 242 233 233 230 230 232 232 240 245 245 248 244 232 243 253 263 264 258 246 250 229 232 235 237 235 224 219 225 220 220 223 224 223 217 217 217 214 216 229
245 247 245 242 238 232 232 233 225 225 220 229 222 227 231 235 243 255 260 262 267 255 252 249 240 232 232 235 232 223 219 224 223 219 221 221 221 220 216 217 218 216 232
240 239 239 236 232 228 229 228 227 219 219 199 178 144 228 270 250 261 262 259 258 251 247 240 237 241 240 233 224 221 221 219 222 218 220 223 221 219 210 213 218 213 224
245 240 238 234 227 222 219 220 220 219 198 203 212 182 121 225 343 333 279 256 259 262 252 253 247 233 231 220 222 222 224 220 217 216 219 222 220 215 211 213 212 211 201
259 236 231 225 220 211 216 223 217 216 213 190 200 204 192 151 172 323 291 266 252 253 251 252 231 223 223 236 224 221 223 219 217 216 220 219 217 207 210 206 203 199 188
246 226 219 211 213 218 223 219 211 212 211 209 196 184 205 201 209 137 244 282 253 247 248 237 226 227 228 230 226 223 222 216 216 214 218 218 210 201 201 200 194 191 184
216 211 201 203 205 212 218 213 214 211 213 210 204 202 184 176 196 162 186 243 237 244 224 212 220 215 210 219 205 225 217 209 212 214 217 212 202 195 196 193 186 182 175
197 191 196 196 200 208 208 206 212 212 207 214 208 200 209 215 208 208 183 197 203 195 198 217 223 228 223 224 235 216 211 203 204 205 210 205 198 194 190 184 179 176 172
194 195 195 196 200 206 199 197 206 199 203 200 199 205 216 219 216 213 198 159 131 272 216 236 208 217 219 219 218 200 198 203 206 205 203 201 200 196 177 175 178 174 174
199 194 192 191 206 199 192 193 187 192 197 201 203 210 211 210 216 215 219 212 170 195 225 219 187 213 205 179 170 190 182 187 192 198 199 189 204 201 171 174 174 175 175
198 189 185 196 193 187 184 184 181 186 195 200 203 199 205 209 206 210 221 218 209 160 154 218 201 201 193 185 185 178 178 185 189 191 193 188 196 186 174 177 176 175 176
191 187 190 188 180 178 179 178 183 192 195 196 199 204 208 210 211 218 225 218 211 191 136 124 142 167 189 176 190 198 189 190 189 191 189 192 198 179 175 179 176 178 179
187 186 184 182 181 177 177 183 187 191 193 197 206 203 208 204 211 221 222 221 216 202 159 143 133 143 167 179 189 183 175 185 190 191 197 196 185 173 178 178 179 180 182
178 180 177 177 175 177 182 191 187 189 203 206 204 208 210 204 209 215 217 215 205 197 183 150 137 134 131 158 159 150 148 153 160 177 183 177 174 181 179 178 178 183 186
172 170 169 170 177 184 188 186 189 197 203 205 211 215 209 212 215 215 218 205 187 168 163 149 133 136 146 153 154 146 140 159 162 169 176 181 182 183 177 176 182 184 187
167 166 171 178 183 184 188 190 185 190 192 196 207 212 210 207 209 217 215 192 181 179 152 152 141 139 147 149 147 154 137 151 151 169 173 181 172 169 169 182 184 186 189
166 171 177 175 177 188 189 194 195 190 191 200 201 200 198 209 223 220 208 201 210 187 160 157 156 166 165 164 160 153 148 139 120 159 154 155 170 167 179 184 185 187 191
160 164 164 173 171 170 182 192 191 193 195 196 197 196 203 217 216 208 194 194 198 206 204 186 173 178 169 177 167 157 153 154 133 157 155 139 167 174 187 184 187 190 197
155 157 158 161 158 163 167 178 188 190 191 190 192 199 209 199 205 197 192 196 192 193 198 198 196 182 183 187 181 167 160 153 142 151 156 106 170 180 184 181 190 198 207
162 160 160 158 157 159 170 177 179 180 181 181 186 186 187 199 193 186 180 164 160 162 178 193 190 184 185 184 178 169 157 145 135 148 169 151 164 159 179 189 198 205 216
157 157 155 157 162 165 168 168 177 176 170 171 171 177 182 192 171 175 169 159 149 157 162 161 162 166 178 182 184 182 174 157 139 129 177 152 162 157 175 213 215 220 225